STARLINK-4500 (53413 NORAD) Tracking and Keplerian Element Data

This shows tracking and keplerian element data for the satellite.

Feedback or suggestion? Click here.




ElementValue
Catalog53413
NameSTARLINK-4500
Epoch Orbit797
Epoch Day270.25001157
Epoch Year2022
RAAN11.4243
Inclination53.2166
Eccentricity0.0001605
Argument of Perigee22.7654
Mean Anonmoly243.3419
Mean Motion15.49886372
Decay Rate0.00042973
L11 53413U 22097AB 22270.25001157 .00042973 00000+0 76089-3 0 9997
L22 53413 53.2166 11.4243 0001605 22.7654 243.3419 15.49886372 7976

Live tracking and technical data element details for STARLINK-4500 (NORAD 53413). STARLINK-4500 can be tracked NOW for your location showing map with azimuth and elevation plus other details from your city location.

Track the satellite on the map from your city or location and see movement details for azimuth, elevation, latitude, longitude, range, height, and movement on the map or in text.







IsCatalogInMostPopularTable: catalog: 53413, numindb: 2
Update: records affected: 1



GetName: 53413 STARLINK-4500

Hit Count: updated at: Wed, 28 Sep 2022 22:00:27 GMT